Regional Weather Roundup
Issued by NWS

Home | Current Version | Previous Version | Text Only | Print | Product List | Glossary On
Versions: 1 2 3 4 5 6 7 8 9 10 11 12 13 14 15 16 17 18 19 20 21 22 23 24 25 26 27 28 29 30 31 32 33 34 35 36 37 38 39 40 41 42 43 44 45 46 47 48 49
000
ASUS42 KKEY 301410
RWRKEY

FLORIDA REGIONAL WEATHER ROUNDUP FOR THE FLORIDA KEYS
NATIONAL WEATHER SERVICE KEY WEST FLORIDA
1000 AM EDT TUE JUN 30 2015

...SOUTH FLORIDA AND THE KEYS...

CITY           SKY/WX    TMP DP  RH WIND       PRES   REMARKS
FORT MYERS     MOSUNNY   85  76  74 SW6       30.14R HX  94
SW REGIONAL AP MOSUNNY   85  74  69 CALM      30.15R HX  92
NAPLES         PTSUNNY   86  75  69 E5        30.14S HX  95
MIAMI          PTSUNNY   88  74  63 VRB6      30.14F HX  96
WEST KENDALL   SUNNY     85  75  72 NW9       30.14S HX  93
HOMESTEAD      MOSUNNY   87  75  67 NW9       30.13F HX  96
MARATHON       MOSUNNY   89  78  70 NW10      30.13R HX 103
BOCA CHICA NAS PTSUNNY   89  75  63 NW9       30.13R HX  99
KEY WEST INTL  SUNNY     89  78  70 N7        30.14R HX 103

...INTERNATIONAL WEATHER...

CITY           SKY/WX    TMP DP  RH WIND       PRES   REMARKS
NASSAU BAHAMAS PTSUNNY   86  70  58 E7        30.17S HX  90
CANCUN MEXICO  PTSUNNY   84  77  79 E12       30.09R HX  94
COZUMEL MEXICO PTSUNNY   81  77  89 E12       30.08R

ADJACENT COASTAL WATERS...

STATION/POSITION TIME  SKY/WX   TEMP    WIND        PRES    WAVE
                                AIR SEA DIR/SP/G            HT/PER
                 (UTC)          (F)     (DEG/KT/KT) (MB)    (FT/S)
PULASKI SHOAL LI 1300            86     300/  2/  2 1020.1R
SAND KEY         1350            85     340/  5/  6 1020.4R
SOMBRERO KEY     1300            85     340/  8/  9 1020.7R
LONG KEY         1300            87 90  350/  9/ 11 1021.0R
MOLASSES REEF    1300            84 85   10/ 10/ 11 1020.0R
FOWEY ROCKS      NOT AVBL

$$


USA.gov is the U.S. government's official web portal to all federal, state and local government web resources and services.